This demonstration page uses our WeatherBlox Daily Observations layout. Learn more.

Hourly Observations for August 28, 2016

Temp ( °F °C ) Dew Point ( °F °C ) Humidity (%) Winds ( mph kmh ) Pressure ( in mb ) Visibility ( mi km ) Precip ( " mm )
12:15 am 00:15 Clear 68 20.2 64 18 87 87 SE 7 11 29.97 1015 10 16.09344 0 0
12:35 am 00:35 Clear 68 20 65 18.1 89 89 SE 7 11 30 1016 10 16.09344 0 0
12:55 am 00:55 Clear 67 19.7 64 18 90 90 SE 7 11 30 1016 10 16.09344 0 0
1:15 am 01:15 Clear 67 19.5 64 18 91 91 SE 6 9 30 1016 10 16.09344 0 0
1:35 am 01:35 Clear 67 19.3 64 18 92 92 SE 6 9 30 1016 10 16.09344 0 0
1:55 am 01:55 Clear 67 19.2 64 18 93 93 SE 6 9 30 1016 10 16.09344 0 0
2:15 am 02:15 Clear 67 19.3 65 18.1 93 93 SE 5 7 30 1016 10 16.09344 0 0
2:35 am 02:35 Clear 67 19.2 64 18 93 93 SSE 5 7 30 1016 10 16.09344 0 0
2:55 am 02:55 Clear 66 19.1 64 18 93 93 SSE 6 9 30 1016 10 16.09344 0 0
3:15 am 03:15 Clear 66 19 64 17.9 93 93 SSE 5 7 30 1016 10 16.09344 0 0
3:35 am 03:35 Clear 66 18.9 64 17.9 94 94 SSE 6 9 30 1016 10 16.09344 0 0
3:55 am 03:55 Clear 66 19 64 18 94 94 SE 5 7 30 1016 10 16.09344 0 0
4:15 am 04:15 Clear 66 18.8 64 17.8 94 94 SSE 3 6 30 1016 10 16.09344 0 0
4:35 am 04:35 Clear 66 18.8 64 17.8 94 94 SSE 5 7 30 1016 10 16.09344 0 0
4:55 am 04:55 Clear 66 18.7 64 17.7 94 94 SSE 5 7 30 1016 10 16.09344 0 0
5:15 am 05:15 Clear 66 18.9 64 17.9 94 94 S 5 7 30 1016 10 16.09344 0 0
5:35 am 05:35 Clear 66 19 64 18 94 94 S 5 7 30 1016 10 16.09344 0 0
5:55 am 05:55 Clear 66 18.8 64 17.8 94 94 S 5 7 30 1016 10 16.09344 0 0
6:15 am 06:15 Clear 65 18.6 64 17.7 95 95 S 3 6 30 1016 7 11.265408 0 0
6:35 am 06:35 Clear 66 18.7 64 17.9 95 95 SSE 6 9 30 1016 7 11.265408 0 0
6:55 am 06:55 Clear 65 18.6 64 17.7 95 95 S 5 7 30 1016 7 11.265408 0 0
7:15 am 07:15 Sunny 65 18.6 64 17.7 95 95 SSE 5 7 30.03 1017 7 11.265408 0 0
7:35 am 07:35 Sunny with Mist and Fog 66 18.9 64 18 95 95 S 3 6 30.03 1017 5 8.04672 0 0
7:55 am 07:55 Sunny 67 19.5 65 18.5 94 94 SSE 5 7 30.03 1017 7 11.265408 0 0
8:15 am 08:15 Sunny 68 20 66 19 94 94 S 6 9 30.03 1017 10 16.09344 0 0
8:35 am 08:35 Sunny 69 20.5 66 19 91 91 SSE 8 13 30 1016 10 16.09344 0 0
8:55 am 08:55 Sunny 69 20.8 66 18.9 89 89 S 7 11 30 1016 10 16.09344 0 0
9:15 am 09:15 Sunny 70 21 66 18.7 87 87 S 6 9 30 1016 10 16.09344 0 0
9:35 am 09:35 Sunny 70 21.2 66 18.7 86 86 S 6 9 30 1016 10 16.09344 0 0
9:55 am 09:55 Sunny 71 21.5 65 18.6 84 84 S 7 11 30 1016 10 16.09344 0 0
10:15 am 10:15 Sunny 71 21.8 65 18.6 82 82 S 7 11 30 1016 10 16.09344 0 0
10:35 am 10:35 Sunny 73 22.6 66 18.7 79 79 S 8 13 30 1016 10 16.09344 0 0
10:55 am 10:55 Sunny 74 23.2 65 18.1 73 73 S 7 11 30.03 1017 10 16.09344 0 0
11:15 am 11:15 Sunny 75 24.1 65 18.1 69 69 S 6 9 30.03 1017 10 16.09344 0 0
11:35 am 11:35 Sunny 76 24.7 64 17.8 66 66 SSW 9 15 30 1016 10 16.09344 0 0
11:55 am 11:55 Sunny 77 25.2 65 18.2 65 65 SW 6 9 30 1016 10 16.09344 0 0
12:15 pm 12:15 Sunny 77 25.1 64 17.7 64 64 S 5 7 30 1016 10 16.09344 0 0
12:35 pm 12:35 Sunny 78 25.6 64 17.7 62 62 S 7 11 30 1016 10 16.09344 0 0
12:55 pm 12:55 Sunny 79 26.2 65 18.2 61 61 SE 5 7 29.97 1015 10 16.09344 0 0
1:15 pm 13:15 Sunny 81 27.3 62 16.8 53 53 SSE 8 13 29.97 1015 10 16.09344 0 0
1:35 pm 13:35 Sunny 81 27.1 61 16.3 52 52 SSE 9 15 29.97 1015 10 16.09344 0 0
1:55 pm 13:55 Sunny 81 27.2 63 17 54 54 SSE 9 15 29.97 1015 10 16.09344 0 0
2:15 pm 14:15 Sunny 82 27.5 62 16.7 52 52 SSE 8 13 29.97 1015 10 16.09344 0 0
2:35 pm 14:35 Sunny 83 28.2 62 16.6 49 49 SSE 12 19 29.94 1014 10 16.09344 0 0
2:55 pm 14:55 Sunny 83 28.4 61 16.3 48 48 SSE 9 15 29.94 1014 10 16.09344 0 0
3:15 pm 15:15 Sunny 82 27.8 63 17.2 53 53 SSE 9 15 29.94 1014 10 16.09344 0 0
3:35 pm 15:35 Sunny 82 28 63 17.1 52 52 S 9 15 29.94 1014 10 16.09344 0 0
3:55 pm 15:55 Sunny 82 28 63 17.3 52 52 S 10 17 29.91 1013 10 16.09344 0 0
4:15 pm 16:15 Sunny 83 28.2 65 18.3 55 55 S 10 17 29.91 1013 10 16.09344 0 0
4:35 pm 16:35 Sunny 83 28.5 63 17 50 50 SSE 10 17 29.91 1013 10 16.09344 0 0
4:55 pm 16:55 Sunny 83 28.3 63 17.3 51 51 S 13 20 29.91 1013 10 16.09344 0 0
5:15 pm 17:15 Sunny 84 28.7 64 17.6 51 51 S 10 17 29.91 1013 10 16.09344 0 0
5:35 pm 17:35 Sunny 83 28.2 63 17.1 51 51 S 12 19 29.91 1013 10 16.09344 0 0
5:55 pm 17:55 Sunny 83 28.2 64 17.6 53 53 S 7 11 29.91 1013 10 16.09344 0 0
6:15 pm 18:15 Sunny 82 27.8 65 18.4 57 57 SE 3 6 29.88 1012 10 16.09344 0 0
6:35 pm 18:35 Sunny 82 27.5 63 17.4 54 54 S 10 17 29.88 1012 10 16.09344 0 0
6:55 pm 18:55 Sunny 83 28.1 63 17.1 51 51 S 8 13 29.91 1013 10 16.09344 0 0
7:15 pm 19:15 Sunny 82 27.7 63 17.4 53 53 S 7 11 29.91 1013 10 16.09344 0 0
7:35 pm 19:35 Sunny 80 26.8 64 18 59 59 S 5 7 29.94 1014 10 16.09344 0 0
7:55 pm 19:55 Sunny 79 26 64 18 61 61 S 5 7 29.97 1015 10 16.09344 0 0
8:15 pm 20:15 Sunny 76 24.4 65 18.5 70 70 SSE 5 7 29.97 1015 10 16.09344 0 0
8:35 pm 20:35 Clear 75 23.7 65 18.2 71 71 SSE 7 11 30 1016 10 16.09344 0 0
8:55 pm 20:55 Clear 74 23.4 64 17.5 70 70 SSE 5 7 30 1016 10 16.09344 0 0
9:15 pm 21:15 Partly Cloudy 72 22 64 17.6 76 76 SE 3 6 30.03 1017 10 16.09344 0 0
9:35 pm 21:35 Partly Cloudy 71 21.4 64 17.6 79 79 SSE 5 7 30.03 1017 10 16.09344 0 0
9:55 pm 21:55 Partly Cloudy 69 20.4 63 17.3 82 82 SE 3 6 30.06 1018 10 16.09344 0 0
10:15 pm 22:15 Partly Cloudy 70 21.2 63 17.3 79 79 SSE 3 6 30.03 1017 10 16.09344 0 0
10:35 pm 22:35 Clear 70 21 63 17 78 78 SSE 3 6 30.03 1017 10 16.09344 0 0
10:55 pm 22:55 Clear 67 19.6 63 17.3 87 87 Calm 30.06 1018 10 16.09344 0 0
11:15 pm 23:15 Clear with Nearby Thunderstorms 67 19.6 63 17.4 87 87 Calm 30.06 1018 10 16.09344 0 0
11:35 pm 23:35 Clear with Nearby Thunderstorms 69 20.5 63 17.3 82 82 S 7 11 30.06 1018 10 16.09344 0 0
11:55 pm 23:55 Clear 69 20.6 63 17.4 82 82 SSE 8 13 30.06 1018 10 16.09344 0 0

Powered by AerisWeather